Location: Ellerstadt
(49.4644°N, 8.2615°E)
Time: 05:04:40
(UTC+00:00)

Cosmos 1354 Rocket - Pass Details

Date: 03 March 2021
Orbit: 765 x 782 km, 74.0° (Epoch: 11 April)

Event Time Altitude Azimuth Distance (km) Brightness Sun altitude
Rises 18:18:10 0° 337° (NNW) 3,254 7.6 -11.3°
Reaches altitude 10° 18:20:34 10° 339° (NNW) 2,320 6.8 -11.7°
Maximum altitude 18:25:50 76° 66° (ENE) 794 3.9 -12.6°
Drops below altitude 10° 18:31:03 10° 152° (SSE) 2,298 6.2 -13.4°
Sets 18:33:25 0° 154° (SSE) 3,220 6.9 -13.8°
